Regional Weather Roundup
Issued by NWS

Home | Current Version | Previous Version | Text Only | Print | Product List | Glossary On
Versions: 1 2 3 4 5 6 7 8 9 10 11 12 13 14 15 16 17 18 19 20 21 22 23 24 25 26 27 28 29 30 31 32 33 34 35 36 37 38 39 40 41 42 43 44 45 46 47 48 49 50
000
ASCA44 KEWX 261220
RWRMX

LATIN AMERICA AND CARIBBEAN REGIONAL WEATHER ROUNDUP
NATIONAL WEATHER SERVICE AUSTIN/SAN ANTONIO TX
700 AM CDT TUE MAY 26 2015

NOTE: "FAIR" INDICATED FEW OR NO CLOUDS BELOW 12,000 FEET WITH NO
SIGNIFICANT WEATHER AND/OR OBSTRUCTIONS TO VISIBILITY.

BAJA CALIFORNIA

CITY           SKY/WX    TMP DP  RH WIND       PRES   REMARKS
LA PAZ         CLEAR     57  54  88 S9        29.95
S.J. DEL CABO  CLEAR     66  54  63 CALM      29.91
TIJUANA        CLOUDY    59  54  82 W3        30.00F

NORTHWESTERN MEXICO

CITY           SKY/WX    TMP DP  RH WIND       PRES   REMARKS
CD. JUAREZ     CLEAR     59  34  38 CALM      30.02

NORTHEASTERN MEXICO

CITY           SKY/WX    TMP DP  RH WIND       PRES   REMARKS
CHIHUAHUA      CLEAR     48  14  25 S9        30.11R WCI  44
MATAMOROS      MOCLDY    79  77  94 SE5       29.92  FOG
MONCLOVA         N/A    N/A N/A N/A MISG        N/A
MONTERREY      CLOUDY    75  73  94 E3        29.89R FOG
NUEVO LAREDO   CLOUDY    79  72  78 SE7       29.87R
PIEDRAS NEGRAS   N/A    N/A N/A N/A MISG        N/A
REYNOSA        CLOUDY    77  73  88 E8        29.90R FOG
SALTILLO       CLEAR     64  55  72 CALM      30.12
TORREON        CLEAR     70  37  30 CALM      30.03R
CD. VICTORIA   CLEAR     75  75 100 S7        29.88R

WESTERN MEXICO

CITY           SKY/WX    TMP DP  RH WIND       PRES   REMARKS
AGUASCALIENTES CLEAR     54  45  71 S7        30.25R
GUADALAJARA    PTCLDY    63  52  67 CALM      30.18R
MAZATLAN       CLEAR     61  54  77 N9        29.87R
P. VALLARTA    PTCLDY    73  72  94 CALM      29.89R
URUAPAN        MOCLDY    63  61  94 CALM      30.18
ZACATECAS      PTCLDY    48  34  57 CALM      30.28R

CENTRAL MEXICO

CITY           SKY/WX    TMP DP  RH WIND       PRES   REMARKS
CUERNAVACA     MOCLDY    64  59  82 CALM      30.14
MEXICO CITY    PTCLDY    59  52  77 SE5       30.32R
POZA RICA      CLOUDY    77  75  94 NW7       29.86R FOG
PUEBLA         CLOUDY    54  52  94 NW5       30.32S
QUERETARO      PTCLDY    55  54  94 CALM      30.29R
S. LUIS POTOSI FOG       59  57  94 W3        30.22R VSB 1/2
TAMPICO        MOCLDY    79  75  89 SE6       29.87R FOG
TOLUCA         PTCLDY    52  46  82 CALM      30.37S

SOUTHERN MEXICO

CITY           SKY/WX    TMP DP  RH WIND       PRES   REMARKS
ACAPULCO       MOCLDY    81  75  83 NE2       29.86R
B. DE HUATULCO PTCLDY    75  68  78 CALM      29.91
OAXACA         MOCLDY    64  59  82 CALM      30.20S
P. ESCONDIDO   CLEAR     77  72  83 E16       29.96
VERACRUZ       PTCLDY    77  73  88 CALM      29.86R
ZIHUATANEJO    MOCLDY    81  73  78 CALM      29.87

YUCATAN PENINSULA

CITY           SKY/WX    TMP DP  RH WIND       PRES   REMARKS
CAMPECHE       CLEAR     79  73  83 E5        29.93R
CANCUN         MOSUNNY   81  75  83 E6        30.02R
CHETUMAL       MOCLDY    82  72  69 SE12      29.94R
CD. DEL CARMEN PTCLDY    81  73  78 E17       29.90R
COZUMEL        MOSUNNY   73  72  94 CALM      30.01R
MERIDA         PTCLDY    77  73  88 E12       29.99R
MINATITLAN     MOCLDY    77  68  73 CALM      29.82R
TAPACHULA      MOCLDY    81  75  83 CALM      29.89S
TUX. GUTIERREZ MOCLDY    70  68  94 CALM      29.96S
VILLAHERMOSA   PTCLDY    73  72  94 CALM      29.89R

CENTRAL AMERICA

CITY           SKY/WX    TMP DP  RH WIND       PRES   REMARKS
BELIZE CITY    MOCLDY    82  77  83 SE7       29.95R HX  91
MANAGUA        MOSUNNY   77  70  78 SE5       29.86R

CARIBBEAN

CITY           SKY/WX    TMP DP  RH WIND       PRES   REMARKS
ARUBA          MOSUNNY   82  73  74 E20       29.94S
CURACAO        MOSUNNY   82  72  69 E13       29.97R
KINGSTON       MOSUNNY   81  72  74 VRB2      30.00R
NASSAU         MOSUNNY   81  72  74 E9        30.17R
SAN JUAN       MOSUNNY   81  73  78 E5        30.05R
SANTO DOMINGO  MOSUNNY   77  73  88 N5        30.03R
ST. CROIX      MOSUNNY   81  72  74 NE7       30.04
ST. KITTS      LGT RAIN  81  72  74 E7        30.00S
ST. MAARTEN    MOSUNNY   81  72  74 E5        30.03S
ST. THOMAS     SUNNY     82  72  69 E9        30.03R

$$



USA.gov is the U.S. government's official web portal to all federal, state and local government web resources and services.